EW7337 Weather Reports


time (UTC)temp
C
wind
direction
speed
KPH
gust
KPH
rain 1hr
cm
rain 24hr
cm
rain mn
cm
humidity
%
barometer
mb
20260504141331 17 265 3.2 9.7 0.00 0.28 0.00 88 1017.2
20260504140830 17 257 3.2 9.7 0.00 0.28 0.00 87 1017.3
20260504140334 17 263 3.2 9.7 0.00 0.28 0.00 87 1017.3
20260504130343 18 295 3.2 9.7 0.00 0.28 0.28 83 1017.3
20260504130200 18 267 3.2 12.9 0.00 0.28 0.28 83 1017.2
20260504120306 18 273 3.2 6.4 0.00 0.28 0.28 81 1017.0
20260504110138 19 342 4.8 12.9 0.00 0.28 0.28 80 1016.6
20260504100308 19 32 6.4 9.7 0.00 0.28 0.28 81 1015.9
20260504081750 19 49 4.8 11.3 0.00 0.28 0.28 84 1016.1
20260504081252 19 17 3.2 9.7 0.00 0.28 0.28 84 1015.9
20260504080751 19 38 4.8 8.0 0.00 0.28 0.28 84 1015.9
20260504080548 19 50 1.6 4.8 0.00 0.28 0.28 84 1015.9
20260504080422 19 49 3.2 6.4 0.00 0.28 0.28 84 1016.0
20260504070241 20 313 3.2 6.4 0.00 0.28 0.28 81 1015.5
20260504070115 20 28 3.2 6.4 0.00 0.28 0.28 81 1015.5
20260504060229 21 57 6.4 11.3 0.00 0.28 0.28 75 1015.6
20260504060112 22 24 4.8 11.3 0.00 0.28 0.28 76 1015.4
20260504050719 21 34 3.2 9.7 0.00 0.28 0.28 80 1015.7
20260504050213 21 327 1.6 14.5 0.00 0.28 0.28 81 1015.7
20260504050106 20 336 6.4 16.1 0.00 0.28 0.28 81 1015.7
20260504045208 20 0 4.8 16.1 0.00 0.28 0.28 83 1015.7
20260504044712 20 10 4.8 8.0 0.00 0.28 0.28 84 1015.7
20260504044210 20 329 1.6 9.7 0.00 0.28 0.28 85 1015.7
20260504043709 20 9 1.6 9.7 0.00 0.28 0.28 85 1015.7
20260504043640 20 333 3.2 12.9 0.00 0.28 0.28 85 1015.8
20260504042704 20 22 1.6 12.9 0.05 0.28 0.28 86 1015.7
20260504042206 20 48 3.2 9.7 0.05 0.28 0.28 86 1015.7
20260504041705 20 42 3.2 9.7 0.05 0.28 0.28 86 1015.9
20260504041211 19 39 6.4 11.3 0.05 0.28 0.28 87 1016.0
20260504040701 19 46 6.4 11.3 0.05 0.28 0.28 88 1016.0
20260504040159 19 37 4.8 9.7 0.05 0.28 0.28 89 1016.2
20260504035655 19 29 3.2 9.7 0.05 0.23 0.28 89 1016.2
20260504035153 19 53 3.2 8.0 0.05 0.23 0.28 90 1016.2
20260504034646 18 23 3.2 8.0 0.05 0.23 0.28 90 1016.2
20260504034139 18 19 3.2 8.0 0.05 0.23 0.28 89 1016.4
20260504033638 18 61 1.6 8.0 0.05 0.23 0.28 89 1016.2
20260504033143 18 82 4.8 8.0 0.08 0.23 0.25 89 1016.2
20260504033032 18 39 3.2 11.3 0.05 0.23 0.23 89 1016.6
20260504032136 18 44 6.4 11.3 0.05 0.23 0.23 88 1016.5
20260504031633 18 42 3.2 8.0 0.08 0.23 0.23 88 1016.6
20260504031136 18 27 1.6 4.8 0.10 0.23 0.23 88 1016.6
20260504030137 18 37 0.0 4.8 0.15 0.23 0.23 88 1016.9
20260504025633 18 34 0.0 4.8 0.15 0.08 0.23 88 1017.0
20260504025133 18 11 1.6 6.4 0.15 0.08 0.23 88 1016.9
20260504024633 18 12 1.6 8.0 0.15 0.08 0.23 87 1017.3
20260504024137 18 338 3.2 8.0 0.15 0.08 0.23 87 1017.5
20260504023632 18 350 3.2 8.0 0.15 0.08 0.23 87 1017.5
20260504023151 18 293 3.2 19.3 0.15 0.08 0.20 87 1017.5
20260504022632 18 315 4.8 19.3 0.15 0.08 0.18 87 1017.7
20260504022137 18 311 3.2 9.7 0.15 0.08 0.15 86 1017.8
20260504021644 18 278 3.2 9.7 0.13 0.08 0.13 86 1018.1
20260504021610 19 302 3.2 9.7 0.10 0.08 0.10 86 1018.1
20260504020644 19 298 3.2 6.4 0.08 0.08 0.08 86 1018.2
20260504020007 19 344 3.2 6.4 0.08 0.00 0.08 86 1018.3
20260504015140 19 321 0.0 3.2 0.08 0.00 0.08 86 1018.3
20260504014633 19 323 3.2 6.4 0.08 0.00 0.05 85 1018.4
20260504014139 19 283 3.2 6.4 0.05 0.00 0.05 85 1018.5
20260504013937 20 280 0.0 4.8 0.05 0.00 0.05 84 1018.6
20260504013811 20 303 3.2 6.4 0.05 0.00 0.05 85 1018.5
20260504012624 20 279 1.6 6.4 0.05 0.00 0.05 84 1018.6
20260504012513 20 280 3.2 6.4 0.03 0.00 0.03 84 1018.9
20260504011619 20 277 1.6 6.4 0.03 0.00 0.03 83 1018.8
20260504011122 20 290 3.2 6.4 0.03 0.00 0.03 83 1019.0
20260504010615 20 327 3.2 4.8 0.00 0.00 0.00 83 1019.0
20260504010116 20 323 1.6 3.2 0.00 0.00 0.00 82 1018.8
20260504010023 20 334 1.6 3.2 0.00 0.00 0.00 83 1018.8
20260504005110 20 343 0.0 3.2 0.00 0.00 0.00 84 1018.8
20260504004608 20 343 0.0 4.8 0.00 0.00 0.00 84 1018.8
20260504004111 20 57 1.6 4.8 0.00 0.00 0.00 85 1018.7
20260504003946 20 46 0.0 4.8 0.00 0.00 0.00 86 1018.7
20260504003112 20 71 0.0 3.2 0.00 0.00 0.00 86 1018.6
20260504002604 19 122 0.0 3.2 0.00 0.00 0.00 87 1018.6
20260504002107 19 122 0.0 1.6 0.00 0.00 0.00 88 1018.5
20260504001605 19 122 1.6 1.6 0.00 0.00 0.00 89 1018.6
20260504001107 18 122 0.0 3.2 0.00 0.00 0.00 89 1018.6
20260504000608 18 122 0.0 3.2 0.00 0.00 0.00 90 1018.5
20260504000107 18 168 0.0 1.6 0.00 0.00 0.00 90 1018.5
20260503235609 18 168 0.0 3.2 0.00 0.00 0.00 90 1018.6
20260503235106 18 206 0.0 4.8 0.00 0.00 0.00 90 1018.6
20260503234610 18 217 1.6 6.4 0.00 0.00 0.00 90 1018.8
20260503234112 18 204 1.6 6.4 0.00 0.00 0.00 90 1018.8
20260503233610 18 219 1.6 8.0 0.00 0.00 0.00 91 1018.9
20260503233110 18 237 4.8 8.0 0.00 0.00 0.00 91 1019.1
20260503232610 18 254 3.2 9.7 0.00 0.00 0.00 91 1019.1
20260503232112 18 248 3.2 9.7 0.00 0.00 0.00 91 1019.2
20260503231609 18 271 3.2 6.4 0.00 0.00 0.00 92 1019.1
20260503231126 18 242 1.6 6.4 0.00 0.00 0.00 92 1019.0
20260503231020 18 275 1.6 6.4 0.00 0.00 0.00 92 1018.9
20260503230115 18 268 1.6 6.4 0.00 0.00 0.00 92 1018.9
20260503225609 18 260 1.6 3.2 0.00 0.00 0.00 92 1018.9
20260503225111 18 267 0.0 0.0 0.00 0.00 0.00 92 1018.7
20260503224608 17 267 0.0 0.0 0.00 0.00 0.00 92 1018.6
20260503224111 17 267 0.0 0.0 0.00 0.00 0.00 92 1018.5
20260503223612 17 267 0.0 0.0 0.00 0.00 0.00 92 1018.4
20260503223109 17 267 0.0 0.0 0.00 0.00 0.00 92 1018.3
20260503222612 17 267 0.0 0.0 0.00 0.00 0.00 92 1018.2
20260503222115 17 267 0.0 4.8 0.00 0.00 0.00 93 1018.2
20260503221950 17 267 0.0 4.8 0.00 0.00 0.00 93 1018.2
20260503221113 17 268 1.6 3.2 0.00 0.00 0.00 93 1018.1
20260503220609 17 111 0.0 0.0 0.00 0.00 0.00 93 1018.0
20260503220113 17 111 0.0 1.6 0.00 0.00 0.00 93 1018.1
20260503215607 17 111 0.0 3.2 0.00 0.00 0.00 93 1018.0
20260503215113 17 111 1.6 3.2 0.00 0.00 0.00 93 1017.9
20260503214608 17 148 0.0 3.2 0.00 0.00 0.00 93 1017.9
20260503214453 17 242 0.0 6.4 0.00 0.00 0.00 93 1017.9
20260503213947 16 268 0.0 6.4 0.00 0.00 0.00 93 1018.0
20260503213109 16 288 1.6 4.8 0.00 0.00 0.00 93 1018.1
20260503212613 16 230 0.0 1.6 0.00 0.00 0.00 93 1017.8
20260503212442 16 230 0.0 1.6 0.00 0.00 0.00 93 1017.7
20260503211605 16 230 0.0 0.0 0.00 0.00 0.00 93 1017.7
20260503211110 16 230 0.0 1.6 0.00 0.00 0.00 92 1017.7
20260503210605 16 230 0.0 1.6 0.00 0.00 0.00 92 1017.7
20260503210111 16 230 0.0 1.6 0.00 0.00 0.00 92 1017.6
20260503205606 16 230 0.0 0.0 0.00 0.00 0.00 92 1017.5
20260503205106 16 230 0.0 3.2 0.00 0.00 0.00 92 1017.5
20260503204608 16 230 0.0 4.8 0.00 0.00 0.00 92 1017.6
20260503204109 16 221 0.0 4.8 0.00 0.00 0.00 92 1017.6
20260503203608 16 275 0.0 1.6 0.00 0.00 0.00 92 1017.6
20260503203451 16 311 0.0 3.2 0.00 0.00 0.00 92 1017.5
20260503202616 16 311 0.0 3.2 0.00 0.00 0.00 92 1017.4
20260503202107 16 349 0.0 0.0 0.00 0.00 0.00 92 1017.3
20260503201605 16 349 0.0 0.0 0.00 0.00 0.00 92 1017.1
20260503201108 16 349 0.0 0.0 0.00 0.00 0.00 92 1017.2
20260503200604 16 349 0.0 0.0 0.00 0.00 0.00 92 1017.1
20260503200113 16 349 0.0 0.0 0.00 0.00 0.00 92 1017.0
20260503195609 16 349 0.0 1.6 0.00 0.00 0.00 92 1017.0
20260503195106 16 349 0.0 1.6 0.00 0.00 0.00 92 1016.9
20260503194608 16 349 0.0 0.0 0.00 0.00 0.00 92 1016.8
20260503194151 16 349 0.0 0.0 0.00 0.00 0.00 92 1016.8
20260503193734 16 349 0.0 0.0 0.00 0.00 0.00 92 1016.8
20260503192637 16 349 0.0 1.6 0.00 0.00 0.00 92 1016.8
20260503192110 16 349 0.0 1.6 0.00 0.00 0.00 92 1016.7
20260503191607 16 349 1.6 1.6 0.00 0.00 0.00 91 1016.8
20260503191114 16 349 0.0 0.0 0.00 0.00 0.00 91 1016.8
20260503190609 16 349 0.0 0.0 0.00 0.00 0.00 91 1016.8
20260503190115 16 349 0.0 0.0 0.00 0.00 0.00 91 1016.8
20260503185612 16 349 0.0 0.0 0.00 0.00 0.00 91 1016.9
20260503185110 16 349 0.0 0.0 0.00 0.00 0.00 91 1016.9
20260503184610 16 349 0.0 1.6 0.00 0.00 0.00 91 1016.9
20260503184109 16 349 0.0 1.6 0.00 0.00 0.00 91 1016.9
20260503183614 16 349 0.0 1.6 0.00 0.00 0.00 91 1016.8
20260503183117 16 349 0.0 1.6 0.00 0.00 0.00 90 1016.9
20260503182612 16 349 1.6 1.6 0.00 0.00 0.00 90 1016.8
20260503182112 16 302 0.0 0.0 0.00 0.00 0.00 90 1016.9
20260503181608 16 302 0.0 0.0 0.00 0.00 0.00 90 1016.7
20260503181109 16 302 0.0 0.0 0.00 0.00 0.00 90 1016.8
20260503180609 16 302 0.0 0.0 0.00 0.00 0.00 90 1016.8
20260503180443 16 302 0.0 0.0 0.00 0.00 0.00 90 1016.8
20260503175605 16 302 0.0 0.0 0.00 0.00 0.00 90 1016.9
20260503175107 16 302 0.0 0.0 0.00 0.00 0.00 90 1017.0
20260503174604 16 302 0.0 0.0 0.00 0.00 0.00 90 1016.9
20260503174107 16 302 0.0 0.0 0.00 0.00 0.00 90 1017.0
20260503173605 16 302 0.0 0.0 0.00 0.00 0.00 90 1017.0
20260503173109 16 302 0.0 0.0 0.00 0.00 0.00 90 1016.9
20260503172609 16 302 0.0 0.0 0.00 0.00 0.00 89 1017.1
20260503172105 16 302 0.0 0.0 0.00 0.00 0.00 89 1017.2
20260503171610 16 302 0.0 0.0 0.00 0.00 0.00 89 1017.3
20260503171112 16 302 0.0 0.0 0.00 0.00 0.00 89 1017.2
20260503170608 16 302 0.0 0.0 0.00 0.00 0.00 89 1017.3
20260503170115 16 302 0.0 0.0 0.00 0.00 0.00 89 1017.2
20260503160112 17 280 0.0 3.2 0.00 0.00 0.00 88 1018.1
20260503150616 17 53 0.0 0.0 0.00 0.00 0.00 86 1018.2
20260503150110 17 53 0.0 0.0 0.00 0.00 0.00 86 1018.4